Location: Vlissingen
(51.4500°N, 3.5830°E)
Time: 13:03:50
(UTC+01:00)

N. Korean satellite - Pass Details

Date: 01 December 2021
Orbit: 447 x 490 km, 97.3° (Epoch: 27 January)

Event Time Altitude Azimuth Distance (km) Brightness Sun altitude
Rises 17:52:22 0° 196° (SSW) 2,538 10.8 -10.7°
Reaches altitude 10° 17:54:45 10° 212° (SSW) 1,655 10.1 -11.0°
Maximum altitude 17:57:38 23° 266° (W) 1,060 9.3 -11.4°
Drops below altitude 10° 18:00:30 10° 321° (NW) 1,645 9.5 -11.9°
Sets 18:02:52 0° 336° (NNW) 2,518 10.3 -12.2°
